Location: Bratislava
(48.1500°N, 17.1170°E)
Time: 16:54:41
(UTC+01:00)

ISS - Visible Passes

Search period start: 14 November 2018 00:00
Search period end: 24 November 2018 00:00
Orbit: 402 x 408 km, 51.6° (Epoch: 15 November)

Date Brightness Start Highest point End Pass type
(mag) Time Alt. Az. Time Alt. Az. Time Alt. Az.
14 Nov -0.9 04:12:25 14° SE 04:12:25 14° SE 04:12:58 10° SE visible
14 Nov -1.5 05:45:07 11° WSW 05:45:40 11° SW 05:46:36 10° SSW visible
15 Nov -1.3 04:55:31 13° S 04:55:31 13° S 04:56:10 10° S visible
